Showing default

YUNHAI 1, 41857

Orbit data source: Space-Track

YUNHAI 1, 41857 is a payload satellite owned by SAST (CN) in SSO that was launched on Fri, 11 Nov 2016 UTC via a CHANG ZHENG 2D launch vehicle from the Jiuquan Satellite Launch Center, China (JSC). Payloads include a variety of satellites, spacecraft, and rockets equipped with specific instruments for various scientific and technological missions. These include communications satellites like Starlink; space stations such as the ISS; scientific satellites like the Hubble; Earth observation satellites from companies like Planet Labs, Umbra, and HawkEye 360; GPS; miniature CubeSats for education and research; and military/defense satellites.

Loading next visibility...
YUNHAI 1 details
Identifier
41857, 2016-068A
Orbit
SSO
Last TLE update7 hours ago
Origin
Flag of CNSAST (CN / PRC)
ManufacturerSAST
MissionOperational Defense Weather
Bus & MotorYUNHAI-1, Unknown motor
Mass~800 kg wet, ~800 kg dry
Launch date (UTC)
2016-11-11 (8 years ago)
Launch vehicle
CHANG ZHENG 2D
Launch site
Jiuquan Satellite Launch Center, China (JSC)
Object type
Payload
Rocket body
Debris
Shape & HBRBox + 2 Pan, 4 m
Radar Cross Section5.141 m², Large (>1 m²)

Expand to show TLE details & history

TLE from 7 hours ago
0 YUNHAI 1
1 41857U 16068A   24361.11176834  .00000740  00000-0  28566-3 0  9994
2 41857  98.5922   5.7240 0006603 143.4197 216.7439 14.33152804424771
Epoch: 2024-12-26T02:40Z
Definitive object data (Epoch: 2024-12-26T02:40:56.784Z)
Latitude-0.00004°
Longitude-129.60844°
Altitude787.938 km
Speed7.458 km/s
True Right ascension00h 22m 53s
True Declination0° 00' 00"
Sunlit
Object was in daylight at TLE epoch
Visualization TLE readout
Latitude45.14056°
Longitude59.38109°
Altitude783.35 km
Speed7.469 km/s
Apparent Right ascension17h 03m 03s
Apparent Declination12° 11' 57"
Sunlit
Object is in daylight
Visualization observer readout
Local Sidereal Time09:21:39
Azimuth64.012° ENE
Elevation-10.683°
Doppler factor1
Orbital elements
Apogee altitude783.072 km
Perigee altitude773.622 km
Semi-major axis7,156.484 km
Eccentricity0.0006603
Inclination98.5922°
RAAN5.724°
Arg. of periapsis143.4197°
True anomaly216.69866°
Mean anomaly216.7439°
Eccentric anomaly216.72128°
Mean motion3.58504 °/min
BSTAR0.00028566
Orbital period100.42 mins
Loading maneuver chart data...
Loading historical data...
Loading historical data...
Loading historical data...
Loading historical data...
Loading historical data...
Loading historical data...
Loading historical data...

YUNHAI 1 Visibility forecast

Observer location: undefined°, undefined

Span
Click to sort rows by Start time (UTC) header in descending order
Start Az.
Max El. time (UTC)
Max El. Az.
Max El.
End time (UTC)
End Az.
9 mins2024-12-26 13:18:33.008Z17.461° NNE2024-12-26 13:23:33.008Z140.957° SSE43.429°2024-12-26 13:27:33.008Z187.589° SSW
8 mins2024-12-27 00:35:33.008Z170.263° S2024-12-27 00:39:33.008Z315.381° NNW43.796°2024-12-27 00:43:33.008Z344.057° N
|